Time,TemperatureF,DewpointF,PressureIn,WindDirection,WindDirectionDegrees,WindSpeedMPH,WindSpeedGustMPH,Humidity,HourlyPrecipIn,Conditions,Clouds,dailyrainin,SolarRadiationWatts/m^2,SoftwareType,DateUTC
2013-06-11 00:04:00,59.5,56.6,29.81,NE,36,0.0,2.0,90,0.00,OVC,BKN,0.00,0.0,WeatherDisplay:10.37,2013-06-11 05:04:00,
2013-06-11 00:09:00,59.5,56.6,29.81,NE,36,1.0,2.0,90,0.00,OVC,BKN,0.00,0.0,WeatherDisplay:10.37,2013-06-11 05:09:00,
2013-06-11 00:14:00,59.3,56.4,29.81,NE,36,0.0,1.0,90,0.00,OVC,BKN,0.00,0.0,WeatherDisplay:10.37,2013-06-11 05:14:00,
2013-06-11 00:19:00,59.2,56.0,29.81,NE,36,0.0,2.0,89,0.00,OVC,BKN,0.00,0.0,WeatherDisplay:10.37,2013-06-11 05:19:00,
2013-06-11 00:24:00,59.1,56.2,29.81,NE,36,0.0,1.0,90,0.00,OVC,BKN,0.00,0.0,WeatherDisplay:10.37,2013-06-11 05:24:00,
2013-06-11 00:29:00,59.0,56.1,29.81,NE,36,1.0,3.0,90,0.00,OVC,BKN,0.00,0.0,WeatherDisplay:10.37,2013-06-11 05:29:00,
2013-06-11 00:34:00,58.9,56.0,29.81,NE,36,1.0,2.0,90,0.00,OVC,BKN,0.00,0.0,WeatherDisplay:10.37,2013-06-11 05:34:00,
2013-06-11 00:39:00,58.7,55.8,29.81,NE,36,2.0,3.0,90,0.00,OVC,BKN,0.00,0.0,WeatherDisplay:10.37,2013-06-11 05:39:00,
2013-06-11 00:44:00,58.6,55.7,29.80,NE,36,2.3,2.3,90,0.00,OVC,BKN,0.00,0.0,WeatherDisplay:10.37,2013-06-11 05:44:00,
2013-06-11 00:50:00,58.5,55.9,29.80,NE,36,2.0,3.0,91,0.00,OVC,BKN,0.00,0.0,WeatherDisplay:10.37,2013-06-11 05:50:00,
2013-06-11 00:54:00,58.4,55.8,29.80,NE,36,2.0,3.0,91,0.00,OVC,BKN,0.00,0.0,WeatherDisplay:10.37,2013-06-11 05:54:00,
2013-06-11 01:00:00,58.3,55.7,29.80,NE,36,1.0,3.0,91,0.00,OVC,BKN,0.00,0.0,WeatherDisplay:10.37,2013-06-11 06:00:00,
2013-06-11 01:05:00,58.1,55.5,29.80,NE,36,1.0,3.0,91,0.00,OVC,BKN,0.00,0.0,WeatherDisplay:10.37,2013-06-11 06:05:00,
2013-06-11 01:10:00,58.1,55.5,29.80,NE,36,1.0,2.0,91,0.00,OVC,BKN,0.00,0.0,WeatherDisplay:10.37,2013-06-11 06:10:00,
2013-06-11 01:14:00,58.0,55.4,29.80,NE,36,1.0,3.0,91,0.00,OVC,BKN,0.00,0.0,WeatherDisplay:10.37,2013-06-11 06:14:00,
2013-06-11 01:19:00,57.8,55.2,29.80,NE,36,0.0,3.0,91,0.00,OVC,BKN,0.00,0.0,WeatherDisplay:10.37,2013-06-11 06:19:00,
2013-06-11 01:24:00,57.8,55.2,29.80,NE,36,0.0,2.0,91,0.00,OVC,BKN,0.00,0.0,WeatherDisplay:10.37,2013-06-11 06:24:00,
2013-06-11 01:30:00,57.6,55.3,29.80,NE,36,2.0,3.0,92,0.00,OVC,BKN,0.00,0.0,WeatherDisplay:10.37,2013-06-11 06:30:00,
2013-06-11 01:35:00,57.5,55.2,29.80,NE,36,3.5,3.5,92,0.00,OVC,BKN,0.00,0.0,WeatherDisplay:10.37,2013-06-11 06:35:00,
2013-06-11 01:40:00,57.5,55.2,29.80,NE,36,1.2,1.2,92,0.00,OVC,BKN,0.00,0.0,WeatherDisplay:10.37,2013-06-11 06:40:00,
2013-06-11 01:45:00,57.3,55.0,29.80,NE,36,2.3,2.3,92,0.00,OVC,BKN,0.00,0.0,WeatherDisplay:10.37,2013-06-11 06:45:00,
2013-06-11 01:50:00,57.2,54.9,29.81,NE,36,3.5,3.5,92,0.00,OVC,BKN,0.00,0.0,WeatherDisplay:10.37,2013-06-11 06:50:00,
2013-06-11 01:55:00,57.0,54.7,29.81,NE,36,4.6,4.6,92,0.00,OVC,BKN,0.00,0.0,WeatherDisplay:10.37,2013-06-11 06:55:00,
2013-06-11 02:00:00,57.0,54.7,29.81,East,89,5.8,5.8,92,0.00,OVC,BKN,0.00,0.0,WeatherDisplay:10.37,2013-06-11 07:00:00,
2013-06-11 02:05:00,56.9,54.6,29.80,ESE,109,5.8,5.8,92,0.00,OVC,BKN,0.00,0.0,WeatherDisplay:10.37,2013-06-11 07:05:00,
2013-06-11 02:11:00,56.7,54.4,29.80,SE,125,6.0,6.0,92,0.00,OVC,BKN,0.00,0.0,WeatherDisplay:10.37,2013-06-11 07:11:00,
2013-06-11 02:16:00,56.7,54.4,29.80,SE,131,6.0,6.0,92,0.00,OVC,BKN,0.00,0.0,WeatherDisplay:10.37,2013-06-11 07:16:00,
2013-06-11 02:21:00,56.7,54.7,29.80,SE,140,5.8,5.8,93,0.00,OVC,BKN,0.00,0.0,WeatherDisplay:10.37,2013-06-11 07:21:00,
2013-06-11 02:26:00,56.7,54.7,29.80,SE,140,5.8,5.8,93,0.00,OVC,BKN,0.00,0.0,WeatherDisplay:10.37,2013-06-11 07:26:00,
2013-06-11 02:31:00,56.7,55.0,29.80,SE,140,5.8,5.8,94,0.00,OVC,BKN,0.00,0.0,WeatherDisplay:10.37,2013-06-11 07:31:00,
2013-06-11 02:36:00,56.7,55.0,29.80,SE,140,3.5,3.5,94,0.00,OVC,BKN,0.00,0.0,WeatherDisplay:10.37,2013-06-11 07:36:00,
2013-06-11 02:41:00,56.7,55.0,29.80,SE,140,4.0,4.0,94,0.00,OVC,BKN,0.00,0.0,WeatherDisplay:10.37,2013-06-11 07:41:00,
2013-06-11 02:46:00,56.9,55.5,29.81,SE,140,3.5,3.5,95,0.00,OVC,BKN,0.00,0.0,WeatherDisplay:10.37,2013-06-11 07:46:00,
2013-06-11 02:51:00,56.9,55.5,29.81,SE,140,3.5,3.5,95,0.00,OVC,BKN,0.00,0.0,WeatherDisplay:10.37,2013-06-11 07:51:00,
2013-06-11 02:57:00,56.9,55.5,29.81,SE,140,3.5,3.6,95,0.00,OVC,BKN,0.00,0.0,WeatherDisplay:10.37,2013-06-11 07:57:00,
2013-06-11 03:02:00,57.0,55.6,29.81,SE,140,4.0,4.0,95,0.00,OVC,BKN,0.00,0.0,WeatherDisplay:10.37,2013-06-11 08:02:00,
2013-06-11 03:07:00,57.2,56.1,29.82,SE,140,4.0,4.0,96,0.00,OVC,BKN,0.00,0.0,WeatherDisplay:10.37,2013-06-11 08:07:00,
2013-06-11 03:12:00,57.2,56.1,29.82,SE,140,5.0,5.0,96,0.00,OVC,BKN,0.00,0.0,WeatherDisplay:10.37,2013-06-11 08:12:00,
2013-06-11 03:17:00,57.2,56.1,29.82,SE,140,4.6,4.6,96,0.00,OVC,BKN,0.00,0.0,WeatherDisplay:10.37,2013-06-11 08:17:00,
2013-06-11 03:22:00,57.2,56.1,29.82,SE,140,4.6,4.6,96,0.00,OVC,BKN,0.00,0.0,WeatherDisplay:10.37,2013-06-11 08:22:00,
2013-06-11 03:27:00,57.2,56.1,29.82,SE,140,3.5,3.5,96,0.00,OVC,BKN,0.00,0.0,WeatherDisplay:10.37,2013-06-11 08:27:00,
2013-06-11 03:32:00,57.0,55.6,29.82,SE,140,4.0,4.0,95,0.00,OVC,BKN,0.00,0.0,WeatherDisplay:10.37,2013-06-11 08:32:00,
2013-06-11 03:38:00,56.9,55.5,29.82,SE,140,4.6,4.7,95,0.00,OVC,BKN,0.00,0.0,WeatherDisplay:10.37,2013-06-11 08:38:00,
2013-06-11 03:43:00,56.7,55.3,29.82,South,173,4.0,4.0,95,0.00,OVC,BKN,0.00,0.0,WeatherDisplay:10.37,2013-06-11 08:43:00,
2013-06-11 03:48:00,56.6,55.2,29.82,South,173,3.5,3.5,95,0.00,OVC,BKN,0.00,0.0,WeatherDisplay:10.37,2013-06-11 08:48:00,
2013-06-11 03:53:00,56.5,55.1,29.82,South,173,3.5,3.5,95,0.00,OVC,BKN,0.00,0.0,WeatherDisplay:10.37,2013-06-11 08:53:00,
2013-06-11 03:58:00,56.3,54.9,29.82,South,173,3.5,3.5,95,0.00,OVC,BKN,0.00,0.0,WeatherDisplay:10.37,2013-06-11 08:58:00,
2013-06-11 04:03:00,56.3,54.9,29.82,South,173,3.5,3.5,95,0.00,OVC,BKN,0.00,0.0,WeatherDisplay:10.37,2013-06-11 09:03:00,
2013-06-11 04:08:00,56.2,54.5,29.82,South,173,5.0,5.0,94,0.00,OVC,BKN,0.00,0.0,WeatherDisplay:10.37,2013-06-11 09:08:00,
2013-06-11 04:14:00,56.0,54.3,29.82,South,173,5.8,5.8,94,0.00,OVC,BKN,0.00,0.0,WeatherDisplay:10.37,2013-06-11 09:14:00,
2013-06-11 04:19:00,55.9,54.2,29.82,South,173,4.6,4.6,94,0.00,OVC,BKN,0.00,0.0,WeatherDisplay:10.37,2013-06-11 09:19:00,
2013-06-11 04:24:00,55.7,54.0,29.83,South,173,3.5,3.5,94,0.00,OVC,BKN,0.00,0.0,WeatherDisplay:10.37,2013-06-11 09:24:00,
2013-06-11 04:29:00,55.6,53.9,29.83,South,173,3.5,3.5,94,0.00,OVC,BKN,0.00,0.0,WeatherDisplay:10.37,2013-06-11 09:29:00,
2013-06-11 04:34:00,55.6,53.9,29.83,South,173,2.0,2.0,94,0.00,OVC,BKN,0.00,0.0,WeatherDisplay:10.37,2013-06-11 09:34:00,
2013-06-11 04:39:00,55.4,53.7,29.83,South,173,0.0,0.0,94,0.00,OVC,BKN,0.00,0.0,WeatherDisplay:10.37,2013-06-11 09:39:00,
2013-06-11 04:44:00,55.4,54.0,29.83,South,173,0.0,0.0,95,0.00,OVC,BKN,0.00,0.0,WeatherDisplay:10.37,2013-06-11 09:44:00,
2013-06-11 04:49:00,55.6,54.2,29.83,South,173,0.0,0.0,95,0.00,OVC,BKN,0.00,0.0,WeatherDisplay:10.37,2013-06-11 09:49:00,
2013-06-11 04:54:00,55.6,54.2,29.84,South,173,0.0,0.0,95,0.00,OVC,BKN,0.00,0.0,WeatherDisplay:10.37,2013-06-11 09:54:00,
2013-06-11 04:59:00,55.6,54.2,29.83,South,173,0.0,0.0,95,0.00,OVC,BKN,0.00,0.0,WeatherDisplay:10.37,2013-06-11 09:59:00,
2013-06-11 05:04:00,55.7,54.6,29.84,South,173,0.0,0.0,96,0.00,OVC,BKN,0.00,0.0,WeatherDisplay:10.37,2013-06-11 10:04:00,
2013-06-11 05:09:00,55.7,54.6,29.83,South,173,0.0,0.0,96,0.00,OVC,BKN,0.00,0.0,WeatherDisplay:10.37,2013-06-11 10:09:00,
2013-06-11 05:14:00,55.7,54.6,29.83,South,173,0.0,0.0,96,0.00,OVC,BKN,0.00,0.0,WeatherDisplay:10.37,2013-06-11 10:14:00,
2013-06-11 05:19:00,55.7,54.6,29.83,South,173,0.0,0.0,96,0.00,OVC,BKN,0.00,0.0,WeatherDisplay:10.37,2013-06-11 10:19:00,
2013-06-11 05:24:00,55.6,54.5,29.83,South,173,0.0,0.0,96,0.00,OVC,BKN,0.00,0.0,WeatherDisplay:10.37,2013-06-11 10:24:00,
2013-06-11 05:29:00,55.4,54.0,29.83,South,173,0.0,2.0,95,0.00,OVC,BKN,0.00,0.0,WeatherDisplay:10.37,2013-06-11 10:29:00,
2013-06-11 05:34:00,55.3,53.9,29.83,South,173,0.0,1.0,95,0.00,OVC,BKN,0.00,0.0,WeatherDisplay:10.37,2013-06-11 10:34:00,
2013-06-11 05:39:00,55.1,53.7,29.83,South,173,0.0,0.0,95,0.00,OVC,BKN,0.00,0.0,WeatherDisplay:10.37,2013-06-11 10:39:00,
2013-06-11 05:44:00,55.0,53.6,29.83,South,173,0.0,2.0,95,0.00,OVC,BKN,0.00,0.0,WeatherDisplay:10.37,2013-06-11 10:44:00,
2013-06-11 05:49:00,54.8,53.4,29.84,South,173,0.0,0.0,95,0.00,OVC,BKN,0.00,0.0,WeatherDisplay:10.37,2013-06-11 10:49:00,
2013-06-11 05:54:00,54.8,53.4,29.84,South,173,0.0,1.0,95,0.00,OVC,BKN,0.00,0.0,WeatherDisplay:10.37,2013-06-11 10:54:00,
2013-06-11 05:59:00,54.7,53.3,29.84,South,173,2.3,2.3,95,0.00,OVC,BKN,0.00,0.0,WeatherDisplay:10.37,2013-06-11 10:59:00,
2013-06-11 06:04:00,54.5,52.8,29.84,South,173,2.0,3.0,94,0.00,OVC,BKN,0.00,0.0,WeatherDisplay:10.37,2013-06-11 11:04:00,
2013-06-11 06:09:00,54.5,53.1,29.85,South,173,0.0,3.0,95,0.00,OVC,BKN,0.00,0.0,WeatherDisplay:10.37,2013-06-11 11:09:00,
2013-06-11 06:14:00,54.4,53.0,29.85,South,173,0.0,2.0,95,0.00,OVC,BKN,0.00,0.0,WeatherDisplay:10.37,2013-06-11 11:14:00,
2013-06-11 06:19:00,54.4,53.0,29.84,South,173,0.0,2.0,95,0.00,OVC,BKN,0.00,0.0,WeatherDisplay:10.37,2013-06-11 11:19:00,
2013-06-11 06:24:00,54.4,53.0,29.85,South,173,1.0,2.0,95,0.00,OVC,BKN,0.00,0.0,WeatherDisplay:10.37,2013-06-11 11:24:00,
2013-06-11 06:29:00,54.4,53.0,29.85,South,173,1.0,2.0,95,0.00,OVC,BKN,0.00,0.0,WeatherDisplay:10.37,2013-06-11 11:29:00,
2013-06-11 06:34:00,54.2,52.8,29.85,South,173,1.0,2.0,95,0.00,OVC,BKN,0.00,0.0,WeatherDisplay:10.37,2013-06-11 11:34:00,
2013-06-11 06:39:00,54.2,52.8,29.85,South,173,2.0,4.0,95,0.00,OVC,BKN,0.00,0.0,WeatherDisplay:10.37,2013-06-11 11:39:00,
2013-06-11 06:44:00,54.2,52.8,29.85,South,173,1.0,4.0,95,0.00,OVC,BKN,0.00,0.0,WeatherDisplay:10.37,2013-06-11 11:44:00,
2013-06-11 06:50:00,54.4,53.0,29.85,South,173,2.0,4.0,95,0.00,OVC,BKN,0.00,0.0,WeatherDisplay:10.37,2013-06-11 11:50:00,
2013-06-11 06:55:00,54.4,53.3,29.85,South,173,3.5,3.5,96,0.00,OVC,BKN,0.00,0.0,WeatherDisplay:10.37,2013-06-11 11:55:00,
2013-06-11 07:00:00,54.5,53.4,29.85,South,173,4.6,4.6,96,0.00,OVC,BKN,0.00,0.0,WeatherDisplay:10.37,2013-06-11 12:00:00,
2013-06-11 07:05:00,54.7,53.6,29.85,South,173,2.3,2.3,96,0.00,OVC,BKN,0.00,0.0,WeatherDisplay:10.37,2013-06-11 12:05:00,
2013-06-11 07:10:00,54.8,53.7,29.85,South,173,2.3,2.3,96,0.00,OVC,BKN,0.00,0.0,WeatherDisplay:10.37,2013-06-11 12:10:00,
2013-06-11 07:15:00,55.0,53.9,29.85,South,173,3.5,3.5,96,0.00,OVC,BKN,0.00,0.0,WeatherDisplay:10.37,2013-06-11 12:15:00,
2013-06-11 07:20:00,55.3,54.5,29.84,South,173,0.0,0.0,97,0.00,OVC,BKN,0.00,0.0,WeatherDisplay:10.37,2013-06-11 12:20:00,
2013-06-11 07:25:00,55.7,55.1,29.85,South,173,0.0,0.0,98,0.00,OVC,BKN,0.00,0.0,WeatherDisplay:10.37,2013-06-11 12:25:00,
2013-06-11 07:30:00,56.2,55.6,29.84,South,173,1.2,1.2,98,0.00,OVC,BKN,0.00,0.0,WeatherDisplay:10.37,2013-06-11 12:30:00,
2013-06-11 07:36:00,56.7,56.4,29.84,South,173,0.0,0.0,99,0.00,OVC,BKN,0.00,0.0,WeatherDisplay:10.37,2013-06-11 12:36:00,
2013-06-11 07:41:00,57.0,56.7,29.84,South,173,4.0,4.0,99,0.00,OVC,BKN,0.00,0.0,WeatherDisplay:10.37,2013-06-11 12:41:00,
2013-06-11 07:46:00,57.6,57.3,29.84,South,173,4.6,4.6,99,0.00,OVC,BKN,0.00,0.0,WeatherDisplay:10.37,2013-06-11 12:46:00,
2013-06-11 07:51:00,58.1,57.8,29.84,South,173,5.0,5.0,99,0.00,OVC,BKN,0.00,0.0,WeatherDisplay:10.37,2013-06-11 12:51:00,
2013-06-11 07:57:00,58.7,58.4,29.84,South,173,3.5,3.5,99,0.00,OVC,BKN,0.00,0.0,WeatherDisplay:10.37,2013-06-11 12:57:00,
2013-06-11 08:02:00,59.2,58.9,29.84,South,173,5.8,5.8,99,0.00,OVC,BKN,0.00,0.0,WeatherDisplay:10.37,2013-06-11 13:02:00,
2013-06-11 08:07:00,59.6,59.3,29.83,South,173,4.6,4.6,99,0.00,OVC,BKN,0.00,0.0,WeatherDisplay:10.37,2013-06-11 13:07:00,
2013-06-11 08:12:00,59.9,59.6,29.84,South,173,5.0,5.0,99,0.00,OVC,BKN,0.00,0.0,WeatherDisplay:10.37,2013-06-11 13:12:00,
2013-06-11 08:17:00,60.4,60.4,29.84,South,173,5.8,5.8,100,0.00,OVC,BKN,0.00,0.0,WeatherDisplay:10.37,2013-06-11 13:17:00,
2013-06-11 08:23:00,60.7,60.7,29.84,SSW,202,6.9,6.9,100,0.00,OVC,BKN,0.00,0.0,WeatherDisplay:10.37,2013-06-11 13:23:00,
2013-06-11 08:28:00,61.0,61.0,29.83,SSW,202,4.6,4.6,100,0.00,OVC,BKN,0.00,0.0,WeatherDisplay:10.37,2013-06-11 13:28:00,
2013-06-11 08:33:00,61.3,61.3,29.83,SSW,210,6.0,6.0,100,0.00,OVC,BKN,0.00,0.0,WeatherDisplay:10.37,2013-06-11 13:33:00,
2013-06-11 08:38:00,61.6,61.6,29.83,SW,221,6.9,6.9,100,0.00,OVC,BKN,0.00,0.0,WeatherDisplay:10.37,2013-06-11 13:38:00,
2013-06-11 08:43:00,61.8,61.8,29.83,WSW,248,8.1,8.1,100,0.00,OVC,BKN,0.00,0.0,WeatherDisplay:10.37,2013-06-11 13:43:00,
2013-06-11 08:48:00,62.1,61.8,29.83,WSW,244,9.0,9.0,99,0.00,OVC,BKN,0.00,0.0,WeatherDisplay:10.37,2013-06-11 13:48:00,
2013-06-11 08:53:00,62.1,61.8,29.83,WSW,252,6.0,6.0,99,0.00,OVC,BKN,0.00,0.0,WeatherDisplay:10.37,2013-06-11 13:53:00,
2013-06-11 08:58:00,62.4,62.1,29.82,WSW,252,5.8,5.8,99,0.00,OVC,BKN,0.00,0.0,WeatherDisplay:10.37,2013-06-11 13:58:00,
2013-06-11 09:04:00,62.6,62.3,29.83,WSW,255,6.9,6.9,99,0.00,OVC,BKN,0.00,0.0,WeatherDisplay:10.37,2013-06-11 14:04:00,
2013-06-11 09:09:00,62.7,62.4,29.83,West,266,9.2,9.2,99,0.00,OVC,BKN,0.00,0.0,WeatherDisplay:10.37,2013-06-11 14:09:00,
2013-06-11 09:14:00,62.9,62.3,29.83,WSW,257,5.8,5.8,98,0.00,OVC,BKN,0.00,0.0,WeatherDisplay:10.37,2013-06-11 14:14:00,
2013-06-11 09:19:00,63.2,62.6,29.83,WSW,243,6.9,6.9,98,0.00,OVC,BKN,0.00,0.0,WeatherDisplay:10.37,2013-06-11 14:19:00,
2013-06-11 09:24:00,63.5,62.6,29.83,WSW,250,10.4,10.4,97,0.00,OVC,BKN,0.00,0.0,WeatherDisplay:10.37,2013-06-11 14:24:00,
2013-06-11 09:29:00,63.9,62.4,29.83,WSW,243,10.4,10.4,95,0.00,OVC,BKN,0.00,0.0,WeatherDisplay:10.37,2013-06-11 14:29:00,
2013-06-11 09:34:00,64.2,62.1,29.83,WSW,257,8.1,8.1,93,0.00,OVC,BKN,0.00,0.0,WeatherDisplay:10.37,2013-06-11 14:34:00,
2013-06-11 09:39:00,64.5,62.1,29.83,WSW,255,3.0,7.0,92,0.00,OVC,BKN,0.00,0.0,WeatherDisplay:10.37,2013-06-11 14:39:00,
2013-06-11 09:44:00,65.4,61.8,29.83,WSW,257,5.0,7.0,88,0.00,OVC,BKN,0.00,0.0,WeatherDisplay:10.37,2013-06-11 14:44:00,
2013-06-11 09:49:00,66.8,61.2,29.82,WSW,254,5.0,8.0,82,0.00,OVC,BKN,0.00,0.0,WeatherDisplay:10.37,2013-06-11 14:49:00,
2013-06-11 09:54:00,67.6,61.6,29.82,West,266,7.0,7.0,81,0.00,OVC,BKN,0.00,0.0,WeatherDisplay:10.37,2013-06-11 14:54:00,
2013-06-11 09:59:00,68.3,61.5,29.82,West,261,6.0,10.0,79,0.00,OVC,BKN,0.00,0.0,WeatherDisplay:10.37,2013-06-11 14:59:00,
2013-06-11 10:04:00,68.3,61.2,29.82,West,264,6.0,10.0,78,0.00,OVC,BKN,0.00,0.0,WeatherDisplay:10.37,2013-06-11 15:04:00,
2013-06-11 10:09:00,68.4,61.3,29.82,WSW,257,8.0,9.0,78,0.00,OVC,BKN,0.00,0.0,WeatherDisplay:10.37,2013-06-11 15:09:00,
2013-06-11 10:14:00,68.4,61.9,29.82,WSW,253,5.0,9.0,80,0.00,OVC,BKN,0.00,0.0,WeatherDisplay:10.37,2013-06-11 15:14:00,
2013-06-11 10:19:00,69.3,61.4,29.82,WSW,256,3.0,7.0,76,0.00,OVC,BKN,0.00,0.0,WeatherDisplay:10.37,2013-06-11 15:19:00,
2013-06-11 10:24:00,69.3,61.4,29.82,West,266,6.0,10.0,76,0.00,OVC,BKN,0.00,0.0,WeatherDisplay:10.37,2013-06-11 15:24:00,
2013-06-11 10:29:00,69.4,61.5,29.82,West,268,5.0,8.0,76,0.00,OVC,BKN,0.00,0.0,WeatherDisplay:10.37,2013-06-11 15:29:00,
2013-06-11 10:34:00,69.8,61.5,29.82,West,259,3.0,7.0,75,0.00,OVC,BKN,0.00,0.0,WeatherDisplay:10.37,2013-06-11 15:34:00,
2013-06-11 10:39:00,69.4,61.5,29.82,West,281,9.0,9.0,76,0.00,OVC,BKN,0.00,0.0,WeatherDisplay:10.37,2013-06-11 15:39:00,
2013-06-11 10:44:00,69.1,60.8,29.82,West,271,6.0,9.0,75,0.00,OVC,BKN,0.00,0.0,WeatherDisplay:10.37,2013-06-11 15:44:00,
2013-06-11 10:49:00,69.1,60.8,29.83,West,275,2.0,7.0,75,0.00,OVC,BKN,0.00,0.0,WeatherDisplay:10.37,2013-06-11 15:49:00,
2013-06-11 10:54:00,69.1,61.2,29.83,West,275,2.0,6.0,76,0.00,OVC,BKN,0.00,0.0,WeatherDisplay:10.37,2013-06-11 15:54:00,
2013-06-11 11:00:00,69.3,61.8,29.83,West,270,5.0,9.0,77,0.00,OVC,BKN,0.00,0.0,WeatherDisplay:10.37,2013-06-11 16:00:00,
2013-06-11 11:05:00,70.1,61.0,29.83,West,281,11.5,11.5,73,0.00,OVC,BKN,0.00,0.0,WeatherDisplay:10.37,2013-06-11 16:05:00,
2013-06-11 11:10:00,70.4,60.9,29.83,West,281,4.6,4.6,72,0.00,OVC,BKN,0.00,0.0,WeatherDisplay:10.37,2013-06-11 16:10:00,
2013-06-11 11:15:00,70.4,61.3,29.83,WNW,290,9.2,9.2,73,0.00,OVC,BKN,0.00,0.0,WeatherDisplay:10.37,2013-06-11 16:15:00,
2013-06-11 11:20:00,70.1,61.0,29.83,West,277,5.8,5.8,73,0.00,OVC,BKN,0.00,0.0,WeatherDisplay:10.37,2013-06-11 16:20:00,
2013-06-11 11:25:00,70.9,61.4,29.83,WSW,254,9.2,9.2,72,0.00,OVC,BKN,0.00,0.0,WeatherDisplay:10.37,2013-06-11 16:25:00,
2013-06-11 11:30:00,70.8,61.3,29.83,WSW,257,10.4,10.4,72,0.00,OVC,BKN,0.00,0.0,WeatherDisplay:10.37,2013-06-11 16:30:00,
2013-06-11 11:35:00,70.9,61.0,29.83,WNW,285,10.4,10.4,71,0.00,OVC,BKN,0.00,0.0,WeatherDisplay:10.37,2013-06-11 16:35:00,
2013-06-11 11:41:00,71.1,60.4,29.83,West,266,9.2,9.2,69,0.00,OVC,BKN,0.00,0.0,WeatherDisplay:10.37,2013-06-11 16:41:00,
2013-06-11 11:46:00,70.8,61.3,29.83,West,281,9.2,9.2,72,0.00,OVC,BKN,0.00,0.0,WeatherDisplay:10.37,2013-06-11 16:46:00,
2013-06-11 11:51:00,72.0,61.7,29.82,West,266,8.0,8.0,70,0.00,OVC,BKN,0.00,0.0,WeatherDisplay:10.37,2013-06-11 16:51:00,
2013-06-11 11:56:00,71.6,62.1,29.82,WSW,252,9.2,9.2,72,0.00,OVC,BKN,0.00,0.0,WeatherDisplay:10.37,2013-06-11 16:56:00,
2013-06-11 12:02:00,71.3,61.4,29.83,West,277,10.4,10.4,71,0.00,OVC,BKN,0.00,0.0,WeatherDisplay:10.37,2013-06-11 17:02:00,
2013-06-11 12:07:00,71.3,61.0,29.82,WNW,283,8.1,8.1,70,0.00,OVC,BKN,0.00,0.0,WeatherDisplay:10.37,2013-06-11 17:07:00,
2013-06-11 12:12:00,71.6,60.9,29.82,West,279,7.0,7.0,69,0.00,OVC,BKN,0.00,0.0,WeatherDisplay:10.37,2013-06-11 17:12:00,
2013-06-11 12:17:00,71.8,60.7,29.82,WNW,288,10.4,10.4,68,0.00,OVC,BKN,0.00,0.0,WeatherDisplay:10.37,2013-06-11 17:17:00,
2013-06-11 12:22:00,71.8,60.7,29.82,WSW,256,11.5,11.5,68,0.00,OVC,BKN,0.00,0.0,WeatherDisplay:10.37,2013-06-11 17:22:00,
2013-06-11 12:27:00,72.0,60.9,29.82,West,261,9.2,9.2,68,0.00,OVC,BKN,0.00,0.0,WeatherDisplay:10.37,2013-06-11 17:27:00,
2013-06-11 12:32:00,72.5,60.9,29.82,West,266,9.2,9.2,67,0.00,OVC,BKN,0.00,0.0,WeatherDisplay:10.37,2013-06-11 17:32:00,
2013-06-11 12:38:00,73.2,62.0,29.82,WSW,252,9.2,9.2,68,0.00,OVC,BKN,0.00,0.0,WeatherDisplay:10.37,2013-06-11 17:38:00,
2013-06-11 12:43:00,72.7,61.5,29.81,WSW,248,9.0,9.0,68,0.00,OVC,BKN,0.00,0.0,WeatherDisplay:10.37,2013-06-11 17:43:00,
2013-06-11 12:48:00,72.1,61.0,29.82,West,261,9.2,9.2,68,0.00,OVC,BKN,0.00,0.0,WeatherDisplay:10.37,2013-06-11 17:48:00,
2013-06-11 12:53:00,71.8,61.5,29.82,WSW,248,10.4,10.4,70,0.00,OVC,BKN,0.00,0.0,WeatherDisplay:10.37,2013-06-11 17:53:00,
2013-06-11 12:58:00,72.0,62.1,29.82,West,261,9.2,9.2,71,0.00,OVC,BKN,0.00,0.0,WeatherDisplay:10.37,2013-06-11 17:58:00,
2013-06-11 13:03:00,71.8,61.5,29.82,West,266,10.0,10.0,70,0.00,OVC,BKN,0.00,0.0,WeatherDisplay:10.37,2013-06-11 18:03:00,
2013-06-11 13:08:00,72.0,60.9,29.82,NW,312,11.5,11.5,68,0.00,OVC,BKN,0.00,0.0,WeatherDisplay:10.37,2013-06-11 18:08:00,
2013-06-11 13:13:00,73.2,62.0,29.81,NW,318,5.8,5.8,68,0.00,OVC,BKN,0.00,0.0,WeatherDisplay:10.37,2013-06-11 18:13:00,
2013-06-11 13:19:00,74.4,61.9,29.81,WNW,288,7.0,7.0,65,0.00,OVC,BKN,0.00,0.0,WeatherDisplay:10.37,2013-06-11 18:19:00,
2013-06-11 13:24:00,73.7,60.8,29.81,NNW,338,10.4,10.4,64,0.00,OVC,BKN,0.00,0.0,WeatherDisplay:10.37,2013-06-11 18:24:00,
2013-06-11 13:29:00,73.7,62.1,29.81,NW,317,6.9,6.9,67,0.00,OVC,BKN,0.00,0.0,WeatherDisplay:10.37,2013-06-11 18:29:00,
2013-06-11 13:34:00,74.6,61.6,29.80,WNW,294,6.9,6.9,64,0.00,OVC,BKN,0.00,0.0,WeatherDisplay:10.37,2013-06-11 18:34:00,
2013-06-11 13:39:00,74.6,62.1,29.80,NW,307,10.4,10.4,65,0.00,OVC,BKN,0.00,0.0,WeatherDisplay:10.37,2013-06-11 18:39:00,
2013-06-11 13:44:00,75.4,61.0,29.80,NW,307,11.0,11.0,61,0.00,OVC,BKN,0.00,0.0,WeatherDisplay:10.37,2013-06-11 18:44:00,
2013-06-11 13:49:00,74.9,60.5,29.80,NW,319,9.2,9.2,61,0.00,OVC,BKN,0.00,0.0,WeatherDisplay:10.37,2013-06-11 18:49:00,
2013-06-11 13:54:00,74.4,59.6,29.80,NNW,339,2.0,10.0,60,0.00,OVC,BKN,0.00,0.0,WeatherDisplay:10.37,2013-06-11 18:54:00,
2013-06-11 13:59:00,74.0,58.7,29.81,North,352,7.0,13.0,59,0.00,OVC,BKN,0.00,0.0,WeatherDisplay:10.37,2013-06-11 18:59:00,
2013-06-11 14:04:00,73.9,60.1,29.81,North,356,6.0,12.0,62,0.00,OVC,BKN,0.00,0.0,WeatherDisplay:10.37,2013-06-11 19:04:00,
2013-06-11 14:09:00,74.4,61.4,29.80,NNW,336,3.5,3.5,64,0.00,OVC,BKN,0.00,0.0,WeatherDisplay:10.37,2013-06-11 19:09:00,
2013-06-11 14:15:00,74.9,59.1,29.80,NNW,336,2.0,9.0,58,0.00,OVC,BKN,0.00,0.0,WeatherDisplay:10.37,2013-06-11 19:15:00,
2013-06-11 14:20:00,75.4,58.1,29.80,NNW,337,13.8,13.8,55,0.00,OVC,BKN,0.00,0.0,WeatherDisplay:10.37,2013-06-11 19:20:00,
2013-06-11 14:25:00,75.3,57.5,29.79,NNE,15,8.1,8.1,54,0.00,OVC,BKN,0.00,0.0,WeatherDisplay:10.37,2013-06-11 19:25:00,
2013-06-11 14:30:00,75.8,59.0,29.80,NNW,336,9.2,9.2,56,0.00,OVC,BKN,0.00,0.0,WeatherDisplay:10.37,2013-06-11 19:30:00,
2013-06-11 14:35:00,75.8,58.5,29.79,NW,312,4.6,4.6,55,0.00,OVC,BKN,0.00,0.0,WeatherDisplay:10.37,2013-06-11 19:35:00,
2013-06-11 14:40:00,76.0,58.7,29.80,NW,306,5.8,5.8,55,0.00,OVC,BKN,0.00,0.0,WeatherDisplay:10.37,2013-06-11 19:40:00,
2013-06-11 14:45:00,75.8,57.4,29.80,WNW,289,10.4,10.4,53,0.00,OVC,BKN,0.00,0.0,WeatherDisplay:10.37,2013-06-11 19:45:00,
2013-06-11 14:51:00,75.3,58.5,29.79,WNW,290,5.8,5.8,56,0.00,OVC,BKN,0.00,0.0,WeatherDisplay:10.37,2013-06-11 19:51:00,
2013-06-11 14:56:00,76.3,58.9,29.79,North,352,13.8,13.8,55,0.00,OVC,BKN,0.00,0.0,WeatherDisplay:10.37,2013-06-11 19:56:00,
2013-06-11 15:01:00,77.0,56.9,29.79,WNW,301,11.5,11.5,50,0.00,OVC,BKN,0.00,0.0,WeatherDisplay:10.37,2013-06-11 20:01:00,
2013-06-11 15:06:00,76.3,56.3,29.79,WNW,294,10.4,10.4,50,0.00,OVC,BKN,0.00,0.0,WeatherDisplay:10.37,2013-06-11 20:06:00,
2013-06-11 15:11:00,76.0,54.9,29.80,NNW,340,11.5,11.5,48,0.00,OVC,BKN,0.00,0.0,WeatherDisplay:10.37,2013-06-11 20:11:00,
2013-06-11 15:16:00,76.3,58.9,29.80,West,279,6.9,6.9,55,0.00,OVC,BKN,0.00,0.0,WeatherDisplay:10.37,2013-06-11 20:16:00,
2013-06-11 15:21:00,75.8,56.4,29.80,West,281,6.0,6.0,51,0.00,OVC,BKN,0.00,0.0,WeatherDisplay:10.37,2013-06-11 20:21:00,
2013-06-11 15:27:00,76.5,56.5,29.80,WNW,287,11.5,11.5,50,0.00,OVC,BKN,0.00,0.0,WeatherDisplay:10.37,2013-06-11 20:27:00,
2013-06-11 15:32:00,76.7,55.5,29.80,NW,325,7.0,7.0,48,0.00,OVC,BKN,0.00,0.0,WeatherDisplay:10.37,2013-06-11 20:32:00,
2013-06-11 15:37:00,76.8,54.5,29.80,WNW,282,13.8,13.8,46,0.00,OVC,BKN,0.00,0.0,WeatherDisplay:10.37,2013-06-11 20:37:00,
2013-06-11 15:42:00,76.0,53.7,29.80,NW,306,11.5,11.5,46,0.00,OVC,BKN,0.00,0.0,WeatherDisplay:10.37,2013-06-11 20:42:00,
2013-06-11 15:47:00,76.7,55.0,29.80,North,354,10.4,10.4,47,0.00,OVC,BKN,0.00,0.0,WeatherDisplay:10.37,2013-06-11 20:47:00,
2013-06-11 15:53:00,76.5,52.3,29.80,NNE,16,12.7,12.7,43,0.00,OVC,BKN,0.00,0.0,WeatherDisplay:10.37,2013-06-11 20:53:00,
2013-06-11 15:58:00,76.8,55.0,29.79,West,278,6.9,6.9,47,0.00,OVC,BKN,0.00,0.0,WeatherDisplay:10.37,2013-06-11 20:58:00,
2013-06-11 16:03:00,77.4,53.8,29.80,WNW,294,10.0,10.0,44,0.00,OVC,BKN,0.00,0.0,WeatherDisplay:10.37,2013-06-11 21:03:00,
2013-06-11 16:08:00,76.5,53.6,29.79,NNW,331,11.5,11.5,45,0.00,OVC,BKN,0.00,0.0,WeatherDisplay:10.37,2013-06-11 21:08:00,
2013-06-11 16:13:00,76.3,53.4,29.80,WNW,285,8.1,8.1,45,0.00,OVC,BKN,0.00,0.0,WeatherDisplay:10.37,2013-06-11 21:13:00,
2013-06-11 16:18:00,76.7,52.5,29.79,NNE,19,16.1,16.1,43,0.00,OVC,BKN,0.00,0.0,WeatherDisplay:10.37,2013-06-11 21:18:00,
2013-06-11 16:23:00,77.0,52.1,29.80,WNW,294,15.0,15.0,42,0.00,OVC,BKN,0.00,0.0,WeatherDisplay:10.37,2013-06-11 21:23:00,
2013-06-11 16:29:00,76.8,52.0,29.80,WNW,290,5.8,5.8,42,0.00,OVC,BKN,0.00,0.0,WeatherDisplay:10.37,2013-06-11 21:29:00,
2013-06-11 16:34:00,76.8,50.0,29.80,NNW,340,8.1,8.1,39,0.00,OVC,BKN,0.00,0.0,WeatherDisplay:10.37,2013-06-11 21:34:00,
2013-06-11 16:39:00,76.7,50.6,29.80,NNW,330,11.0,11.0,40,0.00,OVC,BKN,0.00,0.0,WeatherDisplay:10.37,2013-06-11 21:39:00,
2013-06-11 16:44:00,76.8,50.0,29.80,North,356,8.1,8.1,39,0.00,OVC,BKN,0.00,0.0,WeatherDisplay:10.37,2013-06-11 21:44:00,
2013-06-11 16:49:00,77.0,50.8,29.80,WNW,296,10.4,10.4,40,0.00,OVC,BKN,0.00,0.0,WeatherDisplay:10.37,2013-06-11 21:49:00,
2013-06-11 16:54:00,76.5,51.0,29.80,NNW,338,15.0,15.0,41,0.00,OVC,BKN,0.00,0.0,WeatherDisplay:10.37,2013-06-11 21:54:00,
2013-06-11 16:59:00,76.7,49.9,29.80,NNW,335,9.2,9.2,39,0.00,OVC,BKN,0.00,0.0,WeatherDisplay:10.37,2013-06-11 21:59:00,
2013-06-11 17:04:00,76.8,48.5,29.81,NW,311,2.0,9.0,37,0.00,OVC,BKN,0.00,0.0,WeatherDisplay:10.37,2013-06-11 22:04:00,
2013-06-11 17:09:00,76.9,47.9,29.81,NW,317,7.0,12.0,36,0.00,OVC,BKN,0.00,0.0,WeatherDisplay:10.37,2013-06-11 22:09:00,
2013-06-11 17:14:00,77.2,48.2,29.80,NW,317,7.0,12.0,36,0.00,OVC,BKN,0.00,0.0,WeatherDisplay:10.37,2013-06-11 22:14:00,
2013-06-11 17:19:00,76.7,49.2,29.80,NW,318,6.0,10.0,38,0.00,OVC,BKN,0.00,0.0,WeatherDisplay:10.37,2013-06-11 22:19:00,
2013-06-11 17:25:00,76.8,47.8,29.81,NW,309,6.9,6.9,36,0.00,OVC,BKN,0.00,0.0,WeatherDisplay:10.37,2013-06-11 22:25:00,
2013-06-11 17:30:00,76.8,47.1,29.81,NNW,344,3.5,3.5,35,0.00,OVC,BKN,0.00,0.0,WeatherDisplay:10.37,2013-06-11 22:30:00,
2013-06-11 17:35:00,76.7,45.4,29.80,NNW,344,3.5,3.5,33,0.00,OVC,BKN,0.00,0.0,WeatherDisplay:10.37,2013-06-11 22:35:00,
2013-06-11 17:40:00,76.3,47.4,29.80,North,355,10.4,10.4,36,0.00,OVC,BKN,0.00,0.0,WeatherDisplay:10.37,2013-06-11 22:40:00,
2013-06-11 17:45:00,76.3,45.9,29.80,North,357,6.9,6.9,34,0.00,OVC,BKN,0.00,0.0,WeatherDisplay:10.37,2013-06-11 22:45:00,
2013-06-11 17:50:00,76.7,45.4,29.80,North,7,5.0,5.0,33,0.00,OVC,BKN,0.00,0.0,WeatherDisplay:10.37,2013-06-11 22:50:00,
2013-06-11 17:55:00,76.8,47.1,29.80,North,6,8.1,8.3,35,0.00,OVC,BKN,0.00,0.0,WeatherDisplay:10.37,2013-06-11 22:55:00,
2013-06-11 18:00:00,76.7,52.5,29.80,NNE,32,12.7,12.7,43,0.00,OVC,BKN,0.00,0.0,WeatherDisplay:10.37,2013-06-11 23:00:00,
2013-06-11 18:06:00,75.8,54.7,29.80,NE,42,10.4,10.4,48,0.00,OVC,BKN,0.00,0.0,WeatherDisplay:10.37,2013-06-11 23:06:00,
2013-06-11 18:11:00,75.3,54.3,29.80,NE,48,9.2,9.2,48,0.00,OVC,BKN,0.00,0.0,WeatherDisplay:10.37,2013-06-11 23:11:00,
2013-06-11 18:16:00,75.1,52.9,29.79,ENE,65,8.1,8.1,46,0.00,OVC,BKN,0.00,0.0,WeatherDisplay:10.37,2013-06-11 23:16:00,
2013-06-11 18:21:00,75.3,53.7,29.79,NNE,29,8.1,8.1,47,0.00,OVC,BKN,0.00,0.0,WeatherDisplay:10.37,2013-06-11 23:21:00,
2013-06-11 18:26:00,75.1,52.9,29.79,NNE,27,9.2,9.2,46,0.00,OVC,BKN,0.00,0.0,WeatherDisplay:10.37,2013-06-11 23:26:00,
2013-06-11 18:31:00,74.9,53.3,29.80,ENE,63,10.4,10.4,47,0.00,OVC,BKN,0.00,0.0,WeatherDisplay:10.37,2013-06-11 23:31:00,
2013-06-11 18:36:00,74.4,54.0,29.80,NE,40,5.0,5.0,49,0.00,OVC,BKN,0.00,0.0,WeatherDisplay:10.37,2013-06-11 23:36:00,
2013-06-11 18:41:00,74.4,54.0,29.80,ENE,69,5.8,5.8,49,0.00,OVC,BKN,0.00,0.0,WeatherDisplay:10.37,2013-06-11 23:41:00,
2013-06-11 18:46:00,74.0,54.2,29.80,ENE,70,8.1,8.1,50,0.00,OVC,BKN,0.00,0.0,WeatherDisplay:10.37,2013-06-11 23:46:00,
2013-06-11 18:52:00,73.9,53.5,29.80,NE,56,8.1,8.1,49,0.00,OVC,BKN,0.00,0.0,WeatherDisplay:10.37,2013-06-11 23:52:00,
2013-06-11 18:57:00,73.9,54.1,29.81,NE,54,5.8,5.8,50,0.00,OVC,BKN,0.00,0.0,WeatherDisplay:10.37,2013-06-11 23:57:00,
2013-06-11 19:02:00,73.9,53.0,29.81,NE,42,4.6,4.6,48,0.00,,BKN,0.00,0.0,WeatherDisplay:10.37,2013-06-12 00:02:00,
2013-06-11 19:07:00,73.7,53.9,29.81,NE,46,5.8,5.8,50,0.00,,BKN,0.00,0.0,WeatherDisplay:10.37,2013-06-12 00:07:00,
2013-06-11 19:12:00,73.5,53.7,29.81,NE,48,8.1,8.1,50,0.00,,BKN,0.00,0.0,WeatherDisplay:10.37,2013-06-12 00:12:00,
2013-06-11 19:17:00,73.3,52.4,29.81,NE,54,6.9,6.9,48,0.00,,BKN,0.00,0.0,WeatherDisplay:10.37,2013-06-12 00:17:00,
2013-06-11 19:22:00,72.8,53.6,29.81,NE,42,3.5,3.5,51,0.00,,BKN,0.00,0.0,WeatherDisplay:10.37,2013-06-12 00:22:00,
2013-06-11 19:28:00,73.0,54.3,29.81,NE,48,4.6,4.6,52,0.00,,BKN,0.00,0.0,WeatherDisplay:10.37,2013-06-12 00:28:00,
2013-06-11 19:33:00,73.0,52.7,29.81,NE,42,6.0,6.0,49,0.00,,BKN,0.00,0.0,WeatherDisplay:10.37,2013-06-12 00:33:00,
2013-06-11 19:38:00,72.7,53.5,29.82,NE,48,3.5,3.5,51,0.00,,BKN,0.00,0.0,WeatherDisplay:10.37,2013-06-12 00:38:00,
2013-06-11 19:43:00,71.8,55.7,29.82,NE,48,3.5,3.5,57,0.00,,BKN,0.00,0.0,WeatherDisplay:10.37,2013-06-12 00:43:00,
2013-06-11 19:48:00,70.6,55.1,29.82,NE,48,2.3,2.3,58,0.00,,BKN,0.00,0.0,WeatherDisplay:10.37,2013-06-12 00:48:00,
2013-06-11 19:53:00,69.9,54.9,29.82,NE,48,3.5,3.5,59,0.00,,BKN,0.00,0.0,WeatherDisplay:10.37,2013-06-12 00:53:00,
2013-06-11 19:58:00,69.4,54.4,29.82,ENE,60,4.6,4.6,59,0.00,,BKN,0.00,0.0,WeatherDisplay:10.37,2013-06-12 00:58:00,
2013-06-11 20:03:00,68.9,54.9,29.82,ENE,60,2.3,2.3,61,0.00,,BKN,0.00,0.0,WeatherDisplay:10.37,2013-06-12 01:03:00,
2013-06-11 20:09:00,68.4,54.9,29.83,ENE,60,3.5,3.5,62,0.00,,BKN,0.00,0.0,WeatherDisplay:10.37,2013-06-12 01:09:00,
2013-06-11 20:14:00,67.8,55.2,29.83,ENE,60,3.5,3.5,64,0.00,,BKN,0.00,0.0,WeatherDisplay:10.37,2013-06-12 01:14:00,
2013-06-11 20:19:00,67.3,55.1,29.83,ENE,60,3.5,3.5,65,0.00,,BKN,0.00,0.0,WeatherDisplay:10.37,2013-06-12 01:19:00,
2013-06-11 20:24:00,66.8,55.5,29.83,ENE,60,3.5,3.5,67,0.00,,BKN,0.00,0.0,WeatherDisplay:10.37,2013-06-12 01:24:00,
2013-06-11 20:29:00,66.4,55.1,29.83,ENE,60,3.5,3.5,67,0.00,,BKN,0.00,0.0,WeatherDisplay:10.37,2013-06-12 01:29:00,
2013-06-11 20:34:00,66.0,54.7,29.83,ENE,60,3.5,3.5,67,0.00,,BKN,0.00,0.0,WeatherDisplay:10.37,2013-06-12 01:34:00,
2013-06-11 20:39:00,65.5,55.1,29.83,ENE,60,3.5,3.5,69,0.00,,BKN,0.00,0.0,WeatherDisplay:10.37,2013-06-12 01:39:00,
2013-06-11 20:44:00,64.8,55.2,29.83,ENE,60,2.0,3.0,71,0.00,,BKN,0.00,0.0,WeatherDisplay:10.37,2013-06-12 01:44:00,
2013-06-11 20:49:00,64.3,55.1,29.83,ENE,60,2.0,3.0,72,0.00,,BKN,0.00,0.0,WeatherDisplay:10.37,2013-06-12 01:49:00,
2013-06-11 20:54:00,63.9,55.0,29.83,ENE,60,3.0,5.0,73,0.00,,BKN,0.00,0.0,WeatherDisplay:10.37,2013-06-12 01:54:00,
2013-06-11 20:59:00,63.4,54.6,29.83,ENE,60,3.0,5.0,73,0.00,,BKN,0.00,0.0,WeatherDisplay:10.37,2013-06-12 01:59:00,
2013-06-11 21:05:00,63.1,55.0,29.83,ENE,60,3.0,5.0,75,0.00,,BKN,0.00,0.0,WeatherDisplay:10.37,2013-06-12 02:05:00,
2013-06-11 21:10:00,62.4,54.7,29.83,ENE,60,3.5,3.5,76,0.00,,BKN,0.00,0.0,WeatherDisplay:10.37,2013-06-12 02:10:00,
2013-06-11 21:15:00,62.0,54.7,29.83,ENE,60,3.5,3.5,77,0.00,,BKN,0.00,0.0,WeatherDisplay:10.37,2013-06-12 02:15:00,
2013-06-11 21:20:00,61.3,54.4,29.83,ENE,60,3.5,3.5,78,0.00,,BKN,0.00,0.0,WeatherDisplay:10.37,2013-06-12 02:20:00,
2013-06-11 21:25:00,60.7,54.5,29.83,ENE,60,5.0,5.0,80,0.00,,BKN,0.00,0.0,WeatherDisplay:10.37,2013-06-12 02:25:00,
2013-06-11 21:30:00,60.2,54.7,29.84,ENE,60,3.5,3.5,82,0.00,,BKN,0.00,0.0,WeatherDisplay:10.37,2013-06-12 02:30:00,
2013-06-11 21:35:00,59.8,54.6,29.84,ENE,60,3.5,3.5,83,0.00,,BKN,0.00,0.0,WeatherDisplay:10.37,2013-06-12 02:35:00,
2013-06-11 21:41:00,59.5,54.3,29.84,ENE,63,5.0,5.0,83,0.00,,BKN,0.00,0.0,WeatherDisplay:10.37,2013-06-12 02:41:00,
2013-06-11 21:46:00,59.3,53.8,29.84,ENE,67,4.6,4.6,82,0.00,,BKN,0.00,0.0,WeatherDisplay:10.37,2013-06-12 02:46:00,
2013-06-11 21:51:00,59.3,53.8,29.84,ENE,67,3.5,3.5,82,0.00,,BKN,0.00,0.0,WeatherDisplay:10.37,2013-06-12 02:51:00,
2013-06-11 21:56:00,59.2,54.0,29.84,ENE,67,3.5,3.5,83,0.00,,BKN,0.00,0.0,WeatherDisplay:10.37,2013-06-12 02:56:00,
2013-06-11 22:01:00,58.7,54.2,29.84,ENE,67,5.8,5.8,85,0.00,,BKN,0.00,0.0,WeatherDisplay:10.37,2013-06-12 03:01:00,
2013-06-11 22:07:00,58.3,54.1,29.84,ENE,69,4.0,4.0,86,0.00,,BKN,0.00,0.0,WeatherDisplay:10.37,2013-06-12 03:07:00,
2013-06-11 22:12:00,58.0,54.2,29.84,ENE,69,3.5,3.5,87,0.00,,BKN,0.00,0.0,WeatherDisplay:10.37,2013-06-12 03:12:00,
2013-06-11 22:17:00,57.8,54.0,29.84,ENE,69,4.0,4.0,87,0.00,,BKN,0.00,0.0,WeatherDisplay:10.37,2013-06-12 03:17:00,
2013-06-11 22:22:00,57.6,53.8,29.85,ENE,69,3.5,3.5,87,0.00,,BKN,0.00,0.0,WeatherDisplay:10.37,2013-06-12 03:22:00,
2013-06-11 22:27:00,57.3,53.5,29.85,ENE,69,5.0,5.0,87,0.00,,BKN,0.00,0.0,WeatherDisplay:10.37,2013-06-12 03:27:00,
2013-06-11 22:33:00,57.2,53.4,29.84,ENE,71,6.0,6.0,87,0.00,,BKN,0.00,0.0,WeatherDisplay:10.37,2013-06-12 03:33:00,
2013-06-11 22:38:00,57.2,53.7,29.84,ENE,77,5.8,5.8,88,0.00,,BKN,0.00,0.0,WeatherDisplay:10.37,2013-06-12 03:38:00,
2013-06-11 22:43:00,57.2,53.7,29.84,East,81,7.0,7.0,88,0.00,,BKN,0.00,0.0,WeatherDisplay:10.37,2013-06-12 03:43:00,
2013-06-11 22:48:00,57.3,53.5,29.84,East,84,5.8,5.8,87,0.00,,BKN,0.00,0.0,WeatherDisplay:10.37,2013-06-12 03:48:00,
2013-06-11 22:53:00,57.2,53.4,29.84,East,88,6.0,6.0,87,0.00,,BKN,0.00,0.0,WeatherDisplay:10.37,2013-06-12 03:53:00,
2013-06-11 22:58:00,57.2,53.4,29.83,East,88,6.9,6.9,87,0.00,,BKN,0.00,0.0,WeatherDisplay:10.37,2013-06-12 03:58:00,
2013-06-11 23:01:00,57.2,53.4,29.84,East,89,6.9,6.9,87,0.00,,BKN,0.00,0.0,WeatherDisplay:10.37,2013-06-12 04:01:00,
2013-06-11 23:03:00,57.0,53.2,29.84,East,90,4.6,4.6,87,0.00,,BKN,0.00,0.0,WeatherDisplay:10.37,2013-06-12 04:03:00,
2013-06-11 23:08:00,57.0,53.2,29.84,East,89,5.8,5.8,87,0.00,,BKN,0.00,0.0,WeatherDisplay:10.37,2013-06-12 04:08:00,
2013-06-11 23:14:00,56.9,53.1,29.84,East,89,4.6,4.6,87,0.00,,BKN,0.00,0.0,WeatherDisplay:10.37,2013-06-12 04:14:00,
2013-06-11 23:19:00,56.7,52.9,29.84,East,89,5.8,5.8,87,0.00,,BKN,0.00,0.0,WeatherDisplay:10.37,2013-06-12 04:19:00,
2013-06-11 23:24:00,56.6,52.8,29.84,East,89,5.8,5.8,87,0.00,,BKN,0.00,0.0,WeatherDisplay:10.37,2013-06-12 04:24:00,
2013-06-11 23:29:00,56.6,52.8,29.85,East,89,3.5,3.5,87,0.00,,BKN,0.00,0.0,WeatherDisplay:10.37,2013-06-12 04:29:00,
2013-06-11 23:34:00,56.5,53.0,29.85,East,89,3.5,3.5,88,0.00,,BKN,0.00,0.0,WeatherDisplay:10.37,2013-06-12 04:34:00,
2013-06-11 23:39:00,56.3,52.8,29.85,East,89,3.5,3.5,88,0.00,,BKN,0.00,0.0,WeatherDisplay:10.37,2013-06-12 04:39:00,
2013-06-11 23:44:00,56.2,52.4,29.86,East,89,2.3,2.3,87,0.00,,BKN,0.00,0.0,WeatherDisplay:10.37,2013-06-12 04:44:00,
2013-06-11 23:49:00,56.0,52.5,29.86,East,89,1.0,3.0,88,0.00,,BKN,0.00,0.0,WeatherDisplay:10.37,2013-06-12 04:49:00,
2013-06-11 23:54:00,55.9,52.4,29.86,East,89,1.0,3.0,88,0.00,,BKN,0.00,0.0,WeatherDisplay:10.37,2013-06-12 04:54:00,
2013-06-11 23:59:00,55.9,52.4,29.86,East,89,1.0,3.0,88,0.00,,BKN,0.00,0.0,WeatherDisplay:10.37,2013-06-12 04:59:00,